Flag for Israel Weather past 2 weeks in Tel Aviv, Israel

Now
82 °F

Clear.


Feels Like: 89 °F
Forecast: 83 / 94 °F
Wind: 5 mph from North

Location: Ben Gurion International Airport

Current Time: Aug 1, 2015 at 11:55:16 PM

Latest Report: Aug 1, 2015 at 11:20 PM


Visibility: 10 mi

Pressure: 29.74 "Hg

Humidity: 79%

Dew point: 75 °F

Location of Tel AvivLocation

Historic Weather in Tel Aviv — Graph

°F

Tel Aviv temperature yesterday

Maximum temperature yesterday: 93 °F (at 11:20 AM)
Minimum temperature yesterday: 77 °F (at 2:50 AM)
Average temperature yesterday: 85 °F

Past Weeks' High & Low Weather Summary

 TemperatureHumidityPressure
High97 °F (Jul 24, 10:50 AM)89% (Jul 18, 12:20 AM)29.80 "Hg (Jul 18, 12:20 AM)
Low72 °F (Jul 24, 5:50 AM)28% (Jul 24, 10:20 AM)29.68 "Hg (Jul 19, 4:20 PM)
Average83 °F65%29.73 "Hg
* Reported Jul 17 10:20 PM — Aug 1 10:20 PM, Tel Aviv, Weather by CustomWeather, © 2015

Note: Actual official high and low records may vary slightly from our data, if they occured in-between our weather recording intervals... More about our weather records

Advertising

Tel Aviv weather history for previous 24 hours

 ConditionsComfort  
Time TempWeatherWind HumidityBarometerVisibility
10:20 PM
Sat, Aug 1
82 °FClear.5 mph79%29.77 "Hg10 mi
9:50 PM84 °FClear.5 mph74%29.77 "Hg10 mi
9:20 PM84 °FClear.7 mph74%29.77 "Hg10 mi
8:50 PM84 °FClear.8 mph74%29.74 "Hg10 mi
8:20 PM84 °FSunny.8 mph74%29.74 "Hg10 mi
7:50 PM86 °FSunny.8 mph70%29.74 "Hg10 mi
7:20 PM86 °FSunny.10 mph70%29.74 "Hg10 mi
6:50 PM88 °FSunny.10 mph62%29.74 "Hg10 mi
6:20 PM90 °FPassing clouds.9 mph59%29.74 "HgN/A
5:50 PM90 °FSunny.10 mph59%29.74 "Hg10 mi
5:20 PM91 °FSunny.10 mph52%29.74 "Hg10 mi
4:50 PM93 °FSunny.12 mph44%29.74 "Hg10 mi
4:20 PM91 °FSunny.13 mph49%29.74 "Hg10 mi
3:50 PM91 °FSunny.13 mph49%29.74 "Hg10 mi
3:20 PM91 °FSunny.10 mph49%29.74 "Hg10 mi
2:50 PM91 °FPassing clouds.9 mph52%29.74 "HgN/A
2:20 PM91 °FPassing clouds.12 mph56%29.77 "HgN/A
1:50 PM90 °FSunny.12 mph63%29.77 "Hg10 mi
1:20 PM91 °FPassing clouds.12 mph56%29.77 "HgN/A
12:50 PM91 °FSunny.12 mph56%29.77 "Hg10 mi
12:20 PM90 °FSunny.10 mph63%29.77 "Hg10 mi
11:50 AM90 °FSunny.8 mph59%29.77 "Hg10 mi
11:20 AM90 °FPassing clouds.9 mph59%29.77 "HgN/A
10:50 AM91 °FSunny.6 mph52%29.77 "Hg10 mi
10:20 AM90 °FSunny.5 mph55%29.77 "Hg10 mi
9:50 AM88 °FSunny.3 mph59%29.74 "Hg10 mi
9:20 AM86 °FSunny.2 mph66%29.77 "Hg10 mi
8:50 AM84 °FSunny.2 mph70%29.77 "Hg10 mi
8:20 AM82 °FSunny.6 mph74%29.74 "Hg10 mi
7:50 AM81 °FSunny.9 mph74%29.74 "Hg10 mi
6:50 AM77 °FPassing clouds.7 mph79%29.74 "HgN/A
6:20 AM79 °FPassing clouds.3 mph79%29.74 "Hg6 mi
5:50 AM77 °FPassing clouds.1 mph83%29.74 "Hg6 mi
5:20 AM77 °FPassing clouds.6 mph79%29.74 "HgN/A
4:50 AM77 °FPassing clouds.7 mph79%29.74 "HgN/A
4:20 AM79 °FPassing clouds.5 mph79%29.71 "HgN/A
3:50 AM79 °FPassing clouds.3 mph84%29.71 "HgN/A
3:20 AM79 °FClear.2 mph84%29.74 "Hg10 mi
2:50 AM81 °FClear.2 mph84%29.74 "Hg10 mi
2:20 AM81 °FClear.2 mph84%29.74 "Hg10 mi
1:50 AM81 °FClear.3 mph84%29.74 "Hg10 mi
1:20 AM81 °FClear.5 mph84%29.74 "Hg10 mi
12:50 AM81 °FClear.3 mph84%29.74 "Hg10 mi
12:20 AM81 °FClear.5 mph84%29.74 "Hg10 mi
11:50 PM
Fri, Jul 31
81 °FClear.5 mph84%29.74 "Hg10 mi
11:20 PM81 °FClear.6 mph84%29.74 "Hg10 mi
Weather by CustomWeather, © 2015

See weather overviewHow to use our weather pages